Location: Krakow
(50.0830°N, 19.9170°E)
Time: 05:23:32
(UTC+01:00)

SR - Pass Details

Date: 17 February 2023
Orbit: 582 x 867 km, 66.7° (Epoch: 20 March)

Event Time Altitude Azimuth Distance (km) Brightness Sun altitude
Rises 17:33:42 0° 327° (NNW) 2,873 ? -5.8°
Reaches altitude 10° 17:36:24 10° 342° (NNW) 1,939 ? -6.3°
Maximum altitude 17:39:51 23° 35° (NE) 1,280 ? -6.8°
Drops below altitude 10° 17:43:14 10° 88° (E) 1,905 ? -7.3°
Enters shadow 17:43:31 - 91° (E) 1,993 ? -7.4°
Sets 17:45:51 0° 104° (ESE) 2,808 - -7.8°
